Retour au catalogue

DELTA 2 R/B

unknownVLEO
NORAD 37803·ROCKET BODY·🇺🇸 United States

Lancé Sep 10, 2011 depuis Cape Canaveral Space Force Station

Loading…

Prochains Passages (prochaines 24 heures)

TLE

PériméSource: Space-Track

Époque: Sep 10, 2011, 14:16 UTC

1 37803U 11046C   11253.59467199 +.00002457 -77678-5 +00000-0 0  9994
2 37803 028.5000 009.1212 0000200 263.4759 096.5843 16.41337653000016

Suivez DELTA 2 R/B en temps réel avec AllMySat

Download on the App Store